Regional Weather Roundup
Issued by NWS Cleveland, OH

Home | Current Version | Previous Version | Text Only | Print | Product List | Glossary Off
Versions: 1 2 3 4 5 6 7 8 9 10 11 12 13 14 15 16 17 18 19 20 21 22 23 24 25 26 27 28 29 30 31 32 33 34 35 36 37 38 39 40 41 42 43 44 45 46 47 48 49 50

000
ASUS41 KCLE 240510
RWRCLE
OHIO REGIONAL WEATHER ROUNDUP
NATIONAL WEATHER SERVICE CLEVELAND, OH
1200 AM EST TUE JAN 24 2017

NOTE: "FAIR" INDICATES FEW OR NO CLOUDS BELOW 12,000 FEET WITH NO
SIGNIFICANT WEATHER AND/OR OBSTRUCTIONS TO VISIBILITY.

OHZ001>008-015>018-024>027-034-035-043-044-240600-
   NORTHWEST OHIO

CITY           SKY/WX    TMP DP  RH WIND       PRES   REMARKS
DEFIANCE       CLOUDY    41  40  96 NW6       29.71S
FINDLAY        CLOUDY    40  36  86 NE12      29.68S
TOLEDO EXPRESS CLOUDY    41  41 100 E3        29.71R FOG
TOLEDO EXEC    CLOUDY    40  38  93 NE9       29.72R FOG
LIMA           LGT RAIN  41  41 100 N8        29.69R
$$

OHZ009>014-019>023-028>033-038-089-240600-
   NORTHEAST OHIO

CITY           SKY/WX    TMP DP  RH WIND       PRES   REMARKS
CLE-HOPKINS    DRIZZLE   40  36  86 N6        29.68R FOG
CLE-LAKEFRONT  CLOUDY    37  36  96 NE14      29.66R FOG
CUY CO. ARPT   NOT AVBL
LORAIN-ELYRIA  CLOUDY    37  35  92 NE6       29.67R FOG
ASHTABULA      MIX PCPN  37  36  96 VRB3      29.66R FOG
AKRON-CANTON   CLOUDY    40  37  89 E5        29.63S FOG
WOOSTER        CLOUDY    39  38  96 SE5       29.65R
MANSFIELD      CLOUDY    39  39 100 CALM      29.65R FOG
YOUNGSTOWN     LGT RAIN  38  37  97 CALM      29.63F
$$

OHZ042-051>053-060>062-070>072-077>081-240600-
  SOUTHWEST OHIO

CITY           SKY/WX    TMP DP  RH WIND       PRES   REMARKS
CINC-COVINGTON CLOUDY    42  41  96 NW16G22   29.70R
CINC-LUNKEN    CLOUDY    45  43  93 NW13      29.72R
HAMILTON       CLOUDY    44  43  96 NW13      29.72R
DAYTON         LGT RAIN  40  39  97 N12       29.69R FOG
WRIGHT-PAT AFB DRIZZLE   41  41 100 NW10      29.68R
DAYTON GENERAL LGT RAIN  42  41  96 NW8       29.68R FOG
WILMINGTON     LGT RAIN  40  40 100 N9        29.66S FOG
$$

OHZ036-037-039>041-045>050-054>059-063>069-073>076-082>088-240600-
  CENTRAL AND SOUTHEAST OHIO

CITY           SKY/WX    TMP DP  RH WIND       PRES   REMARKS
COLUMBUS       DRIZZLE   42  41  96 SE3       29.65R
OSU AIRPORT    CLOUDY    41  41 100 N10       29.65R FOG
BOLTON FIELD   DRIZZLE   41  41 100 N8        29.66R
RICKENBACK AFB DRIZZLE   40  40 100 CALM      29.65R
NEWARK         CLOUDY    42  38  85 VRB3      29.64S
MARION         CLOUDY    38  37  97 N8        29.67R FOG
LANCASTER      CLOUDY    42  40  92 E6        29.65S FOG
ZANESVILLE     CLOUDY    40  36  86 N3        29.64R
NEW PHILLY     NOT AVBL
$$



USA.gov is the U.S. government's official web portal to all federal, state and local government web resources and services.